Location: Bourg-d�Oueil
(42.8588°N, 0.4991°E)
Time: 17:04:59
(UTC+00:00)

SPOT 1/Viking Rocket - Pass Details

Date: 16 June 2021
Orbit: 778 x 793 km, 98.4° (Epoch: 03 August)

Event Time Altitude Azimuth Distance (km) Brightness Sun altitude
Exits shadow 21:05:02 14° 169° (S) 2,087 5.2 -12.6°
Maximum altitude 21:09:34 82° 256° (WSW) 791 3.6 -13.2°
Drops below altitude 10° 21:14:44 10° 345° (NNW) 2,339 7.1 -13.7°
Sets 21:17:04 0° 346° (NNW) 3,271 8.1 -14.0°
